Probability
2 2 4 8 11 11 9 7 5 4 4 3 3 1 0 0 1 2 3 3 3 3 3 3 2 1 0 0 0 0 0 0 0 0 0 0 0 0 0 0 0 0 0
3 4 5 9 11 12 11 8 7 7 6 5 3 2 0 0 0 1 2 3 4 4 3 3 2 1 0 0 0 0 0 0 0 0 0 0 0 0 0 0 0 0 0
5 5 7 9 11 12 12 10 8 9 8 6 3 1 0 0 0 0 1 2 4 5 4 3 3 1 0 0 0 0 0 0 0 0 0 0 0 0 0 0 0 0 0
6 6 8 11 11 11 11 10 9 9 9 8 4 1 0 0 0 0 0 1 4 6 5 4 3 2 1 0 0 0 0 0 0 0 0 0 0 0 0 0 0 0 0
7 8 11 13 13 11 11 10 9 8 9 8 5 2 0 0 0 0 0 1 3 5 6 5 4 4 2 1 0 0 0 0 0 0 0 0 0 0 0 0 0 0 0
8 10 13 15 14 13 11 9 8 8 8 8 7 5 2 1 2 2 1 0 2 5 6 6 6 5 4 2 0 0 0 0 0 0 0 0 0 0 0 0 0 0 0
8 9 12 14 14 13 11 9 8 7 7 8 10 9 6 4 4 4 3 1 2 4 6 6 6 5 4 2 0 0 0 0 0 0 0 0 0 0 0 0 0 0 0
8 9 10 11 12 12 10 8 7 7 6 7 10 11 10 8 7 7 5 3 3 5 6 5 4 4 4 2 1 1 0 0 0 0 0 0 0 0 0 0 0 0 0
8 9 9 9 10 11 9 7 7 6 5 5 8 11 12 11 11 9 7 4 4 6 6 5 3 3 3 3 2 1 0 0 0 0 0 0 0 0 0 0 0 0 0
9 8 8 9 10 11 10 8 7 6 5 5 5 8 10 12 11 10 8 5 5 7 7 5 4 4 4 3 3 1 0 0 0 0 0 0 0 0 0 0 0 0 0
11 9 8 9 11 12 11 8 7 6 6 5 4 5 8 10 10 10 9 7 6 8 8 7 5 5 4 4 2 1 0 0 0 0 0 0 0 0 0 0 0 0 0
10 9 7 8 11 12 12 9 7 7 6 6 5 5 6 7 8 9 9 8 7 8 8 7 6 5 4 3 2 1 0 0 0 0 0 0 0 0 0 0 0 0 0
9 8 7 7 9 11 12 10 8 6 6 6 5 3 3 5 6 7 8 7 5 5 6 5 4 4 2 1 1 0 0 0 0 0 0 0 0 0 0 0 0 0 0
9 9 7 7 9 10 10 10 7 5 4 4 3 2 2 2 3 5 5 6 6 5 4 4 3 3 1 0 0 0 0 0 0 0 0 0 0 0 0 0 0 0 0
10 10 8 8 9 10 10 10 8 6 4 4 4 3 2 1 2 3 4 6 8 7 5 3 3 2 1 0 0 0 0 0 0 0 0 0 0 0 0 0 0 0 0
10 9 8 9 10 11 12 12 11 9 7 6 6 5 4 2 2 3 4 6 7 7 5 4 2 1 0 0 0 0 0 0 0 0 0 0 0 0 0 0 0 0 0
7 7 7 8 10 12 13 13 12 12 10 7 6 5 4 3 3 4 5 6 6 6 4 3 2 2 1 1 0 0 0 0 0 0 0 0 0 0 0 0 0 0 0
5 5 5 6 8 11 12 12 12 13 12 8 5 4 4 3 3 3 5 5 4 3 2 1 1 2 2 2 1 0 1 1 1 0 0 0 0 0 0 0 0 0 0
4 4 4 4 5 8 10 11 12 12 11 7 3 3 3 2 2 2 3 4 3 3 1 0 0 1 2 2 1 1 2 2 2 2 2 1 0 0 0 0 0 0 0
3 3 3 3 4 5 7 8 9 9 6 3 1 1 2 1 2 3 4 4 3 3 1 0 0 1 1 1 1 1 2 3 3 3 3 2 1 1 0 0 0 0 0
1 2 2 2 2 2 3 4 4 4 2 1 0 0 0 0 1 3 4 5 4 3 2 1 0 1 1 1 1 2 2 3 3 3 3 3 3 2 1 1 0 0 0
0 1 1 1 1 1 0 1 1 1 1 0 0 0 0 0 0 2 3 5 5 4 3 2 1 1 0 0 1 2 3 3 2 2 2 3 3 3 3 2 1 0 0
0 0 0 0 0 0 0 0 0 0 0 0 0 0 0 0 0 0 1 4 5 5 4 3 2 1 0 0 0 2 3 3 3 2 2 3 3 2 2 2 2 1 0
0 0 0 0 0 0 0 0 0 0 0 0 0 0 0 0 0 0 1 3 4 3 2 1 1 1 0 0 0 1 2 2 3 3 3 3 2 1 1 1 1 1 1
0 0 1 1 1 1 1 0 0 0 0 0 0 0 0 0 0 1 2 3 3 1 1 0 0 0 0 0 0 0 1 1 1 2 2 2 2 1 0 0 0 0 0
0 1 2 3 3 2 2 1 0 0 0 0 0 0 0 0 0 1 2 3 2 1 0 0 0 0 0 0 0 0 0 0 0 1 1 2 2 1 0 0 0 0 0
Wind_Speed
6 8 8 8 8 8 8 8 9 9 9 8 8 9 9 10 10 11 11 11 11 11 11 12 12 12 12 13 13 14 14 14 14 14 14 14 13 14 14 14 13 10 15
9 9 9 8 8 8 8 8 8 8 8 8 8 9 9 9 9 10 10 10 11 11 11 11 11 12 12 12 12 12 12 12 12 12 12 12 13 13 14 14 13 9 14
9 9 9 9 8 8 7 8 7 8 8 7 8 8 9 9 9 9 9 9 10 10 10 10 11 11 11 11 11 10 10 10 9 9 9 6 8 12 13 13 13 13 13
9 9 8 10 9 8 8 8 7 7 7 7 7 8 9 9 9 9 9 9 9 9 9 10 10 11 11 10 10 9 8 7 6 6 5 5 6 11 12 11 12 12 12
8 8 9 10 9 8 8 8 7 7 7 7 8 8 8 8 8 8 8 8 9 9 9 9 9 10 10 9 8 8 6 5 5 5 5 6 5 9 11 11 10 10 11
8 8 9 9 9 8 8 7 7 7 7 7 8 8 8 8 8 8 8 8 8 8 8 8 9 9 8 8 7 6 4 4 4 3 5 6 5 9 10 10 10 10 10
7 8 8 8 8 8 7 7 6 6 6 6 7 7 8 8 8 8 7 7 7 7 8 8 8 8 7 7 6 5 4 4 2 4 4 5 6 9 9 9 9 9 10
7 7 7 7 7 7 7 6 5 5 5 5 6 7 7 8 8 8 7 7 7 7 7 8 7 7 6 6 5 3 2 3 2 4 4 4 7 8 8 8 8 8 9
7 6 5 5 5 6 6 5 5 4 4 4 5 6 6 7 8 8 7 7 7 7 7 7 7 6 6 5 4 2 2 2 2 2 5 4 7 7 7 7 7 8 8
6 6 4 4 4 3 3 4 4 4 3 3 4 5 5 6 7 7 7 7 7 6 6 7 7 6 5 4 2 1 1 2 1 2 3 4 7 6 6 6 6 6 7
5 4 4 3 3 2 2 4 4 3 3 3 3 4 4 4 5 5 6 6 7 7 6 6 6 6 4 3 2 1 1 0 1 2 2 5 6 5 5 5 5 5 6
3 3 3 3 2 2 2 3 2 2 2 2 2 2 2 2 3 4 6 7 7 7 7 6 6 5 3 2 2 2 1 1 1 2 3 7 6 5 5 4 5 5 5
3 3 3 2 2 2 1 2 1 1 1 1 2 2 2 2 2 3 3 3 4 5 4 4 4 3 3 2 2 2 1 1 1 1 3 6 5 4 4 4 4 4 4
2 3 3 2 2 2 1 1 2 1 1 1 1 2 1 1 2 2 2 3 3 2 3 3 2 3 3 3 3 2 1 1 1 1 3 5 4 4 4 4 4 4 4
2 3 3 2 2 1 1 1 1 1 1 1 1 1 2 1 2 2 2 3 3 3 3 3 3 2 2 2 2 3 2 2 2 2 3 5 4 4 4 4 4 4 4
1 2 2 2 2 1 1 1 1 1 1 1 1 1 1 1 1 2 2 3 3 3 3 3 3 3 2 2 2 2 2 2 2 2 3 3 4 4 4 5 5 4 4
1 1 1 2 2 1 1 1 1 1 1 1 1 1 1 1 1 2 2 2 2 3 3 2 3 2 2 2 2 2 2 2 2 2 3 3 3 4 4 4 5 5 4
1 1 1 1 1 1 1 1 1 1 1 1 1 1 1 1 1 1 2 2 2 2 3 3 2 2 2 2 2 2 1 2 2 2 2 3 3 3 4 4 4 5 5
1 1 1 0 1 1 1 1 1 1 1 1 1 1 1 1 2 2 2 2 2 2 2 3 2 2 2 2 2 2 1 1 2 2 3 3 3 3 4 4 5 5 4
1 1 1 0 1 1 1 1 1 1 1 1 1 1 1 1 2 2 2 2 2 2 2 2 3 3 2 2 1 1 2 2 2 3 3 3 3 3 3 4 3 4 5
1 2 1 1 0 1 1 1 1 1 1 1 1 1 1 1 2 2 2 2 2 2 3 3 2 3 2 2 1 1 2 3 4 3 3 3 3 3 3 3 3 3 3
2 1 1 1 1 0 1 1 1 1 1 1 1 1 1 2 2 2 2 2 2 2 3 3 2 1 2 2 2 1 1 2 3 3 3 3 4 3 4 4 3 3 3
2 1 2 2 1 0 0 0 0 0 0 0 1 1 1 2 2 2 2 2 2 2 3 3 3 3 2 2 2 3 3 3 1 2 4 3 4 3 3 3 4 4 4
1 1 1 2 1 1 1 1 1 1 1 2 1 1 1 1 1 2 2 2 3 2 2 3 3 2 3 3 2 2 2 2 2 1 2 3 4 4 4 4 4 4 4
2 1 1 2 2 1 1 1 1 1 1 1 1 2 2 1 1 1 1 2 2 2 2 3 3 3 3 3 2 2 2 1 1 2 3 2 2 3 4 4 4 4 4
2 1 1 1 2 1 1 1 1 2 2 2 2 2 2 1 1 1 1 1 2 2 3 3 3 3 3 3 3 2 2 2 2 2 3 3 3 3 4 3 4 4 4
Wind_Direction
112 119 120 117 125 128 130 129 124 121 116 112 110 110 107 104 104 101 99 98 95 93 90 90 88 85 81 79 77 78 78 78 77 77 77 77 77 75 71 71 70 67 72
120 122 121 116 122 126 129 132 126 123 119 116 115 114 110 108 109 106 104 103 100 96 92 91 90 88 85 83 81 81 81 81 81 80 77 76 77 75 71 70 71 73 73
117 121 123 119 122 118 120 128 129 127 124 120 120 120 116 113 110 109 109 106 103 99 95 93 91 90 88 86 86 84 83 80 79 79 79 78 77 76 74 75 75 74 74
117 122 122 123 121 117 114 119 125 128 127 126 124 125 122 119 114 110 110 108 105 103 100 97 95 92 90 88 87 86 83 76 70 72 78 79 75 78 77 77 77 75 75
114 116 117 122 121 117 116 113 119 126 127 127 126 125 127 124 120 117 112 111 110 106 104 104 101 98 95 94 91 88 79 65 54 64 71 75 72 80 78 77 77 77 76
111 111 118 116 118 118 116 115 112 119 128 132 131 128 127 127 123 120 116 114 113 112 110 109 105 103 101 99 97 89 70 50 44 75 75 79 79 82 81 79 77 78 77
112 111 120 115 114 114 116 116 115 115 122 132 135 136 134 132 129 126 121 119 118 115 114 113 110 106 105 104 99 86 57 42 49 81 85 86 88 87 84 81 80 78 75
109 111 121 114 113 115 115 112 115 123 125 129 138 139 138 139 137 135 130 127 126 121 116 120 120 116 115 111 104 87 44 33 51 80 90 91 97 92 90 86 82 80 76
107 111 119 126 125 121 120 118 120 119 127 135 141 143 141 145 145 144 141 137 133 131 122 124 123 122 122 117 110 87 43 6 13 68 95 96 103 100 94 89 88 85 80
109 115 121 129 131 134 135 130 130 129 126 139 145 153 150 151 152 153 149 148 146 141 134 134 132 130 130 126 115 74 343 344 47 67 87 105 110 110 104 97 92 89 86
114 122 129 128 129 127 141 139 138 140 137 134 135 154 162 163 161 161 158 157 155 152 149 149 149 146 144 154 171 216 294 131 78 83 93 113 116 117 115 109 104 101 97
129 128 128 135 135 134 141 138 146 147 151 155 149 155 174 172 165 161 159 159 160 162 159 162 164 164 168 179 197 209 200 175 106 98 108 119 122 123 119 116 111 110 107
139 127 119 125 132 133 132 138 138 144 159 175 169 166 177 176 156 149 146 150 157 164 164 168 174 184 190 182 179 192 196 158 123 110 121 129 130 135 139 141 137 130 121
134 135 129 138 132 133 135 148 147 145 159 170 179 173 154 165 160 160 159 162 166 171 175 177 185 188 188 190 181 181 195 181 145 127 138 143 145 152 157 158 157 153 146
127 133 142 140 135 143 142 153 139 153 168 181 174 176 150 159 171 170 173 170 171 169 174 183 181 179 190 199 188 183 195 196 168 149 141 152 158 170 175 178 178 173 165
134 134 142 144 139 143 149 154 151 151 155 151 147 145 143 149 171 176 178 174 177 172 175 183 178 170 180 187 199 202 202 194 184 164 150 161 168 178 190 193 193 192 189
62 75 123 150 143 155 164 177 156 156 150 146 141 134 133 138 168 181 178 187 184 177 181 181 183 167 181 175 192 219 217 201 182 178 170 169 172 182 192 204 202 204 208
68 90 98 124 148 165 174 190 168 160 144 149 150 151 158 161 161 176 178 195 190 183 183 180 179 175 185 179 190 214 220 205 195 196 188 179 175 177 187 204 215 216 219
61 106 107 111 166 177 185 182 172 158 141 152 153 161 182 185 185 180 185 194 189 183 193 190 183 175 178 185 194 204 208 222 214 210 200 187 180 172 173 191 202 213 224
61 90 119 103 168 189 171 136 124 137 153 181 177 185 200 211 205 183 186 192 180 182 191 190 186 186 177 173 194 220 218 226 224 217 208 189 183 183 175 183 194 212 219
70 58 65 78 171 147 147 165 172 191 197 207 199 186 208 249 229 193 185 191 191 194 197 186 184 193 196 165 146 255 252 223 227 218 202 190 194 192 188 189 191 195 212
69 53 30 35 15 81 158 192 199 188 196 195 188 196 216 235 232 203 190 191 197 198 199 196 172 187 218 187 167 177 251 267 247 220 205 202 202 192 195 198 190 194 195
52 36 16 0 343 292 207 138 106 80 95 133 200 217 232 226 219 218 206 197 199 197 202 205 193 184 202 224 200 180 191 216 260 238 211 204 200 198 206 205 205 207 204
65 38 14 353 336 279 231 193 192 202 201 215 204 211 229 252 250 227 212 209 207 205 207 210 204 197 187 206 240 235 223 187 169 253 257 223 211 213 212 211 210 212 208
55 38 2 341 331 325 307 235 210 225 232 212 198 200 213 229 245 245 220 207 212 213 211 213 215 208 204 203 204 221 249 262 205 196 249 244 240 227 216 211 210 212 213
49 27 3 335 323 322 317 283 238 225 225 234 217 209 213 213 223 232 239 210 220 224 223 217 215 213 212 215 216 205 202 212 210 204 232 236 242 242 227 220 214 214 214